Cosmos 1633 Rocket - Orbit

View from above orbital plane
View from above orbital plane
View from above satellite
View from above satellite

Ground track
Ground track

The orbit data is extracted from the following two-line orbital elements,

1 15593U 85020B   13138.78545385  .00000422  00000-0  48660-4 0  3472
2 15593 082.5395 216.5114 0010265 278.3589 230.6862 14.83337128523347
Epoch (UTC): 18 May 2013 18:51:03
Eccentricity: 0.0010265
inclination: 82.5395°
perigee height: 611 km
apogee height: 626 km
right ascension of ascending node: 216.5114°
argument of perigee: 278.3589°
revolutions per day: 14.83337128
mean anomaly at epoch: 230.6862°
orbit number at epoch: 52334

The dashed part of the orbit path shows where the satellite is in the earth's shadow,  

Developed and maintained by Chris Peat, Heavens-Above GmbH. Please read the updated FAQ before sending e-mail. Imprint. DLR